Regional Weather Roundup
Issued by NWS Cleveland, OH

Home | Current Version | Previous Version | Graphics & Text | Print | Product List | Glossary On
Versions: 1 2 3 4 5 6 7 8 9 10 11 12 13 14 15 16 17 18 19 20 21 22 23 24 25 26 27 28 29 30 31 32 33 34 35 36 37 38 39 40 41 42 43 44 45 46 47 48 49 50
000
ASUS41 KCLE 102310
RWRCLE
OHIO REGIONAL WEATHER ROUNDUP
NATIONAL WEATHER SERVICE CLEVELAND, OH
600 PM EST SAT DEC 10 2016

NOTE: "FAIR" INDICATES FEW OR NO CLOUDS BELOW 12,000 FEET WITH NO
SIGNIFICANT WEATHER AND/OR OBSTRUCTIONS TO VISIBILITY.

OHZ001>008-015>018-024>027-034-035-043-044-110000-
   NORTHWEST OHIO

CITY           SKY/WX    TMP DP  RH WIND       PRES   REMARKS
DEFIANCE       CLOUDY    26  15  63 SW5       30.45S WCI  20
FINDLAY        CLOUDY    26  14  60 W7        30.44S WCI  18
TOLEDO EXPRESS CLOUDY    26  16  65 SW8       30.44R WCI  18
TOLEDO EXEC    CLOUDY    27  16  63 SW12      30.45S WCI  17
LIMA           CLOUDY    25  16  68 SW7       30.43F WCI  17
$$

OHZ009>014-019>023-028>033-038-089-110000-
   NORTHEAST OHIO

CITY           SKY/WX    TMP DP  RH WIND       PRES   REMARKS
CLE-HOPKINS    CLOUDY    27  13  55 SW12      30.47S WCI  17
CLE-LAKEFRONT  CLOUDY    26  16  65 S12       30.45S WCI  16
CUY CO. ARPT   CLOUDY    25  16  68 SW12      30.44S WCI  14
LORAIN-ELYRIA  CLOUDY    25  14  63 W12       30.45F WCI  14
ASHTABULA      CLOUDY    24  15  68 SW12      30.43R WCI  13
AKRON-CANTON   CLOUDY    25  14  63 W7        30.44S WCI  17
WOOSTER        CLOUDY    24  14  65 W10       30.45S WCI  14
MANSFIELD      CLOUDY    22  16  78 SW7       30.42F WCI  13
YOUNGSTOWN     FLURRIES  24  14  65 SW10      30.42S WCI  14
$$

OHZ042-051>053-060>062-070>072-077>081-110000-
  SOUTHWEST OHIO

CITY           SKY/WX    TMP DP  RH WIND       PRES   REMARKS
CINC-COVINGTON CLOUDY    28  18  66 CALM      30.46S
CINC-LUNKEN    PTCLDY    28  19  69 S3        30.51S
HAMILTON       CLOUDY    29  17  61 CALM      30.49S
DAYTON         CLOUDY    26  15  63 S7        30.45F WCI  18
WRIGHT-PAT AFB CLOUDY    25  16  70 S6        30.46F WCI  18
DAYTON GENERAL CLOUDY    25  16  68 SE3       30.45F
WILMINGTON     CLOUDY    26  16  65 CALM      30.46S
$$

OHZ036-037-039>041-045>050-054>059-063>069-073>076-082>088-110000-
  CENTRAL AND SOUTHEAST OHIO

CITY           SKY/WX    TMP DP  RH WIND       PRES   REMARKS
COLUMBUS       CLOUDY    26  16  65 SW3       30.47F
OSU AIRPORT    CLOUDY    26  15  63 SW5       30.46F WCI  20
BOLTON FIELD   CLOUDY    25  16  68 CALM      30.48S
RICKENBACK AFB   N/A     26  16  66 CALM      30.48S
NEWARK         CLOUDY    26  15  63 SW5       30.47S WCI  20
MARION         CLOUDY    25  16  68 SW6       30.45F WCI  18
LANCASTER      CLOUDY    27  17  66 CALM      30.48S
ZANESVILLE     CLOUDY    27  15  61 CALM      30.48S
NEW PHILLY     NOT AVBL
$$




USA.gov is the U.S. government's official web portal to all federal, state and local government web resources and services.